Location: Smoky Mountain Stargaze
(35.4252°N, 83.3329°W)
Time: 07:00:18
(UTC-04:00)

Amateur Radio Satellites - All Passes

Search period start: 19 October 2017 06:30
Search period end: 20 October 2017 06:30
Location: Smoky Mountain Stargaze, 35.4252°N, 83.3329°W

Satellite Date Start Highest point End Downlink Frequencies (MHz)
Time Altitude Azimuth
XW-2D 19 Oct 06:36:05 06:37:30 12° 93° (E) 06:38:53 145.860 - 145.880
RS-15 19 Oct 06:44:47 06:50:25 14° 358° (N) 06:55:58 29.354- 29.394
XW-2B 19 Oct 06:48:32 06:50:59 17° 94° (E) 06:53:25 145.730 - 145.750
SO-50 19 Oct 07:00:36 07:03:59 21° 111° (ESE) 07:07:22 436.795
XW-2C 19 Oct 07:10:52 07:14:16 33° 98° (E) 07:17:40 145.795 - 145.815
JUGNU 19 Oct 07:12:02 07:14:15 12° 168° (SSE) 07:16:28 437.505
O/OREOS (USA 219) 19 Oct 07:14:26 07:18:25 28° 63° (ENE) 07:22:21 437.305
DOVE 4 19 Oct 07:21:43 07:26:21 39° 287° (WNW) 07:31:10 437.250
CUTE 1.7 + AOD 2 19 Oct 07:29:06 07:29:51 10° 91° (E) 07:30:35 437.475
HO-68 19 Oct 07:36:34 07:42:02 23° 94° (E) 07:47:28 435.675
STRAND 1 19 Oct 07:45:01 07:49:49 42° 71° (ENE) 07:54:38 437.568
PCSat 19 Oct 07:55:27 07:57:07 11° 102° (ESE) 07:58:47 145.827
CUTE-I 19 Oct 07:55:51 08:01:15 85° 103° (ESE) 08:06:38 437.470
XW-2F 19 Oct 07:56:57 08:00:36 56° 284° (WNW) 08:04:14 145.980 - 146.000
KAITUO 1B 19 Oct 07:57:42 08:01:22 74° 283° (WNW) 08:05:01 145.475/437.950
LilacSat-2 19 Oct 07:59:02 08:02:37 45° 285° (WNW) 08:06:13 437.200
XW-2D 19 Oct 08:08:20 08:11:46 35° 286° (WNW) 08:15:10 145.860 - 145.880
CUBEBUG 2 19 Oct 08:11:53 08:15:27 22° 94° (E) 08:18:54 437.445
NUDT-PHONESAT 19 Oct 08:14:32 08:18:01 43° 285° (WNW) 08:21:29 437.300
XW-2B 19 Oct 08:22:01 08:25:07 25° 288° (WNW) 08:28:12 145.730 - 145.750
XW-2A 19 Oct 08:37:44 08:40:21 21° 96° (E) 08:42:56 145.665 - 145.685
SO-50 19 Oct 08:40:09 08:44:12 33° 306° (NW) 08:48:17 436.795
XW-2C 19 Oct 08:46:21 08:48:06 13° 292° (WNW) 08:49:51 145.795 - 145.815
UWE-3 19 Oct 08:52:35 08:56:41 34° 97° (E) 09:00:38 435.000/436.395/437.385
O/OREOS (USA 219) 19 Oct 08:54:00 08:57:38 23° 259° (WSW) 09:01:15 437.305
JUGNU 19 Oct 08:58:52 09:02:29 17° 178° (S) 09:06:05 437.505
RS-15 19 Oct 08:59:57 09:09:24 26° 35° (NE) 09:18:28 29.354- 29.394
CUTE 1.7 + AOD 2 19 Oct 09:01:51 09:05:55 51° 285° (WNW) 09:09:59 437.475
FO-29 19 Oct 09:03:08 09:07:45 33° 69° (ENE) 09:12:36 435.910
SEEDS 19 Oct 09:11:41 09:15:49 67° 284° (WNW) 09:19:57 437.485
Oscar 11 19 Oct 09:13:37 09:16:29 17° 94° (E) 09:19:19 .
YUBILEINY 19 Oct 09:19:14 09:25:55 26° 83° (E) 09:32:37 435.215
HO-68 19 Oct 09:23:02 09:30:04 59° 290° (WNW) 09:37:05 435.675
STRAND 1 19 Oct 09:25:28 09:29:06 19° 266° (W) 09:32:46 437.568
PCSat 19 Oct 09:34:22 09:39:46 77° 297° (WNW) 09:45:12 145.827
SRMSAT 19 Oct 09:34:26 09:34:42 10° 165° (SSE) 09:34:58 437.500
CUTE-I 19 Oct 09:39:01 09:40:31 11° 299° (WNW) 09:42:00 437.470
AAUSAT CUBESAT 2 19 Oct 09:39:50 09:43:58 74° 282° (WNW) 09:48:04 437.432
nSIGHT-1 19 Oct 09:45:41 09:46:52 12° 127° (SE) 09:48:04 .
CUBEBUG 2 19 Oct 09:48:00 09:52:02 30° 289° (WNW) 09:55:57 437.445
AO-73 19 Oct 09:48:04 09:52:24 69° 101° (E) 09:56:37 145.935
ZACube-1 19 Oct 10:09:20 10:13:38 56° 285° (WNW) 10:17:47 437.345
XW-2A 19 Oct 10:10:51 10:12:51 15° 290° (WNW) 10:14:50 145.665 - 145.685
ISS 19 Oct 10:13:35 10:16:07 21° 130° (SE) 10:18:40 437.550
PRISM 19 Oct 10:19:02 10:21:51 18° 68° (ENE) 10:24:40 437.425
UNISAT 6 19 Oct 10:23:03 10:27:32 54° 74° (ENE) 10:32:07 437.425
UWE-3 19 Oct 10:29:42 10:32:48 19° 292° (WNW) 10:35:51 435.000/436.395/437.385
TIGRISAT 19 Oct 10:38:06 10:42:41 74° 77° (ENE) 10:47:23 435.000
NO-84 19 Oct 10:46:08 10:48:10 14° 30° (NNE) 10:50:06 435.350 FM
JUGNU 19 Oct 10:47:36 10:50:43 15° 188° (S) 10:53:51 437.505
Oscar 11 19 Oct 10:48:48 10:52:39 33° 288° (WNW) 10:56:30 .
FO-29 19 Oct 10:48:53 10:52:58 23° 266° (W) 10:57:11 435.910
EO-88 19 Oct 10:50:32 10:53:23 22° 96° (E) 10:56:13 145.990 - 145.960
Max Valier Satellite 19 Oct 10:56:48 11:00:16 38° 98° (E) 11:03:41 145.860
RS-15 19 Oct 11:12:02 11:23:58 83° 61° (ENE) 11:35:12 29.354- 29.394
YUBILEINY 19 Oct 11:13:30 11:22:01 59° 280° (W) 11:30:36 435.215
SRMSAT 19 Oct 11:19:31 11:23:04 16° 174° (S) 11:26:39 437.500
nSIGHT-1 19 Oct 11:19:42 11:22:48 50° 321° (NW) 11:25:55 .
DELFI C3 19 Oct 11:20:12 11:24:08 67° 283° (WNW) 11:28:04 145.870
PCSat 19 Oct 11:22:37 11:24:03 11° 315° (NW) 11:25:29 145.827
EO-79 19 Oct 11:38:20 11:40:25 14° 66° (ENE) 11:42:32 145.935-145.965
POLYITAN 1 19 Oct 11:42:18 11:44:45 15° 67° (ENE) 11:47:13 437.675
LO-87 19 Oct 11:45:30 11:46:57 12° 93° (E) 11:48:25 145.935 - 145.965
ISS 19 Oct 11:49:33 11:52:28 30° 325° (NW) 11:55:23 437.550
PRISM 19 Oct 11:53:24 11:56:53 28° 263° (W) 12:00:24 437.425
AIST 2D 19 Oct 11:59:17 12:02:46 68° 77° (ENE) 12:06:16 435.315
QB50P2 19 Oct 12:01:09 12:04:46 27° 71° (ENE) 12:08:24 145.880/145.840
UNISAT 6 19 Oct 12:02:36 12:04:31 12° 269° (W) 12:06:28 437.425
BEESAT 3 19 Oct 12:04:34 12:06:38 14° 109° (ESE) 12:08:42 437.485
NANOSAT C BR1 19 Oct 12:05:52 12:09:19 25° 70° (ENE) 12:12:48 145.865
DUCHIFAT 1 19 Oct 12:17:06 12:20:45 29° 71° (ENE) 12:24:25 145.980
NO-84 19 Oct 12:22:22 12:26:01 74° 231° (SW) 12:29:19 435.350 FM
EO-88 19 Oct 12:24:20 12:26:51 18° 290° (WNW) 12:29:23 145.990 - 145.960
Max Valier Satellite 19 Oct 12:32:39 12:33:41 11° 293° (WNW) 12:34:42 145.860
BUGSAT 1 19 Oct 12:33:20 12:33:41 10° 64° (ENE) 12:34:02 437.445
ESTCUBE 1 19 Oct 12:38:10 12:42:24 41° 99° (E) 12:46:38 437.505/2401.250
SRMSAT 19 Oct 13:07:53 13:11:30 17° 185° (S) 13:15:08 437.500
EO-79 19 Oct 13:11:40 13:15:45 45° 261° (W) 13:19:51 145.935-145.965
POLYITAN 1 19 Oct 13:16:08 13:20:09 40° 261° (W) 13:24:12 437.675
LO-87 19 Oct 13:17:11 13:20:27 32° 287° (WNW) 13:23:41 145.935 - 145.965
BEESAT 2 19 Oct 13:20:43 13:24:10 29° 113° (ESE) 13:27:41 435.950
Oscar 19 19 Oct 13:25:10 13:29:16 24° 68° (ENE) 13:33:23 437.125/150
RS-15 19 Oct 13:26:46 13:34:47 22° 260° (W) 13:42:36 29.354- 29.394
SPROUT 19 Oct 13:33:44 13:37:48 40° 99° (E) 13:41:50 437.525
M-CUBED/EXP-1 PRIME 19 Oct 13:34:17 13:37:07 24° 68° (ENE) 13:39:51 437.505
QB50P2 19 Oct 13:37:17 13:40:29 21° 265° (W) 13:43:43 145.880/145.840
BEESAT 3 19 Oct 13:40:00 13:43:47 40° 303° (WNW) 13:47:36 437.485
NANOSAT C BR1 19 Oct 13:41:33 13:44:55 23° 264° (W) 13:48:19 145.865
Gurwin Techsat 1B 19 Oct 13:46:51 13:51:16 28° 68° (ENE) 13:55:42 435.225
DUCHIFAT 1 19 Oct 13:53:19 13:56:23 19° 265° (W) 13:59:28 145.980
AO-85 19 Oct 14:02:14 14:06:02 57° 116° (ESE) 14:09:53 145.980
BUGSAT 1 19 Oct 14:04:21 14:08:27 59° 260° (W) 14:12:38 437.445
VELOX 1 19 Oct 14:09:16 14:13:42 71° 102° (ESE) 14:18:07 145.980
ESTCUBE 1 19 Oct 14:16:08 14:18:50 16° 293° (WNW) 14:21:31 437.505/2401.250
50 SAT 19 Oct 14:17:11 14:19:36 19° 96° (E) 14:22:01 437.505
SRMSAT 19 Oct 14:58:44 14:59:54 11° 195° (SSW) 15:01:03 437.500
BEESAT 2 19 Oct 14:58:49 15:01:54 21° 308° (NW) 15:05:01 435.950
Oscar 19 19 Oct 15:03:41 15:08:22 35° 262° (W) 15:13:04 437.125/150
M-CUBED/EXP-1 PRIME 19 Oct 15:09:36 15:11:32 14° 259° (W) 15:13:24 437.505
SPROUT 19 Oct 15:10:52 15:13:18 15° 293° (WNW) 15:15:45 437.525
AO-7 19 Oct 15:11:22 15:18:44 37° 63° (ENE) 15:26:07 .
DX 1 19 Oct 15:19:10 15:23:33 80° 284° (WNW) 15:27:54 434.975-435.025
Gurwin Techsat 1B 19 Oct 15:26:21 15:31:02 32° 263° (W) 15:35:46 435.225
ITAMSAT 1 19 Oct 15:34:23 15:38:36 26° 67° (ENE) 15:42:50 435.822/435.867
SO-50 19 Oct 15:35:41 15:36:59 11° 44° (NE) 15:38:18 436.795
AO-85 19 Oct 15:45:30 15:46:48 11° 314° (NW) 15:48:05 145.980
UKube-1 19 Oct 15:45:36 15:49:53 63° 285° (WNW) 15:54:08 .
50 SAT 19 Oct 15:49:33 15:51:45 17° 290° (WNW) 15:53:57 437.505
MOZHAYETS 4 19 Oct 16:07:54 16:11:49 27° 96° (E) 16:15:41
ITUPSAT 1 19 Oct 16:26:44 16:31:12 38° 99° (E) 16:35:37 437.325
BEESAT 19 Oct 16:42:46 16:47:30 59° 101° (ESE) 16:52:11 436.000
ISS 19 Oct 16:44:25 16:45:40 12° 25° (NNE) 16:46:55 437.550
DOVE 4 19 Oct 16:49:41 16:51:09 12° 65° (ENE) 16:52:39 437.250
AO-7 19 Oct 17:03:27 17:11:16 45° 259° (W) 17:19:08 .
ITAMSAT 1 19 Oct 17:13:13 17:17:51 33° 262° (W) 17:22:32 435.822/435.867
SO-50 19 Oct 17:13:25 17:18:04 89° 59° (ENE) 17:22:46 436.795
CUTE-I 19 Oct 17:38:54 17:40:35 11° 61° (ENE) 17:42:17 437.470
KKS-1 19 Oct 17:43:14 17:46:04 16° 94° (E) 17:48:51 437.445
MOZHAYETS 4 19 Oct 17:45:09 17:48:48 24° 291° (WNW) 17:52:25
nSIGHT-1 19 Oct 17:49:07 17:52:11 40° 38° (NE) 17:55:14 .
XW-2C 19 Oct 17:51:01 17:52:20 12° 67° (ENE) 17:53:38 145.795 - 145.815
CUBESAT XI-V 19 Oct 17:52:48 17:57:25 85° 102° (ESE) 18:02:01 437.345
HO-68 19 Oct 18:05:10 18:08:04 13° 55° (NE) 18:10:58 435.675
ITUPSAT 1 19 Oct 18:05:18 18:08:42 20° 293° (WNW) 18:12:05 437.325
STARS 19 Oct 18:18:55 18:21:36 16° 94° (E) 18:24:15 437.465
ISS 19 Oct 18:19:20 18:22:37 77° 42° (NE) 18:25:53 437.550
BEESAT 19 Oct 18:22:33 18:24:42 13° 296° (WNW) 18:26:52 436.000
DOVE 4 19 Oct 18:24:20 18:28:20 48° 261° (W) 18:32:29 437.250
PCSat 19 Oct 18:25:24 18:30:34 44° 59° (ENE) 18:35:43 145.827
XW-2F 19 Oct 18:34:20 18:37:52 38° 74° (ENE) 18:41:23 145.980 - 146.000
KAITUO 1B 19 Oct 18:34:31 18:37:46 29° 73° (ENE) 18:41:02 145.475/437.950
LilacSat-2 19 Oct 18:37:16 18:40:59 50° 75° (ENE) 18:44:42 437.200
XW-2D 19 Oct 18:45:42 18:49:27 63° 76° (ENE) 18:53:12 145.860 - 145.880
NUDT-PHONESAT 19 Oct 18:49:57 18:53:31 45° 75° (ENE) 18:57:05 437.300
XW-2B 19 Oct 18:59:03 19:02:52 88° 255° (WSW) 19:06:41 145.730 - 145.750
CUBEBUG 2 19 Oct 19:07:46 19:10:09 14° 65° (ENE) 19:12:32 437.445
CUTE-I 19 Oct 19:14:34 19:19:52 81° 256° (WSW) 19:25:14 437.470
KKS-1 19 Oct 19:18:32 19:22:42 38° 288° (WNW) 19:26:51 437.445
XW-2C 19 Oct 19:22:30 19:26:06 40° 261° (W) 19:29:42 145.795 - 145.815
nSIGHT-1 19 Oct 19:26:19 19:28:11 15° 232° (SW) 19:30:03 .
UWE-3 19 Oct 19:46:35 19:50:01 21° 68° (ENE) 19:53:28 435.000/436.395/437.385
HO-68 19 Oct 19:47:27 19:54:35 77° 73° (ENE) 20:01:47 435.675
CUTE 1.7 + AOD 2 19 Oct 19:50:46 19:54:59 71° 76° (ENE) 19:59:12 437.475
STARS 19 Oct 19:53:54 19:58:02 39° 288° (WNW) 20:02:10 437.465
STRAND 1 19 Oct 19:59:29 20:02:59 18° 94° (E) 20:06:28 437.568
SEEDS 19 Oct 19:59:48 20:03:52 52° 75° (ENE) 20:07:55 437.485
PCSat 19 Oct 20:09:36 20:13:36 21° 254° (WSW) 20:17:36 145.827
KAITUO 1B 19 Oct 20:09:40 20:11:46 14° 266° (W) 20:13:52 145.475/437.950
XW-2F 19 Oct 20:10:57 20:12:06 11° 268° (W) 20:13:15 145.980 - 146.000
AAUSAT CUBESAT 2 19 Oct 20:26:32 20:30:26 44° 74° (ENE) 20:34:20 437.432
XW-2A 19 Oct 20:37:10 20:40:35 84° 260° (W) 20:44:01 145.665 - 145.685
AO-73 19 Oct 20:39:54 20:44:05 36° 72° (ENE) 20:48:17 145.935
CUBEBUG 2 19 Oct 20:41:42 20:46:12 54° 261° (W) 20:50:51 437.445
ZACube-1 19 Oct 21:01:00 21:05:32 74° 77° (ENE) 21:10:08 437.345
UWE-3 19 Oct 21:22:01 21:26:11 34° 263° (W) 21:30:26 435.000/436.395/437.385
O/OREOS (USA 219) 19 Oct 21:23:01 21:27:28 57° 107° (ESE) 21:31:58 437.305
YUBILEINY 19 Oct 21:27:11 21:35:53 61° 80° (E) 21:44:35 435.215
Max Valier Satellite 19 Oct 21:34:20 21:35:47 12° 68° (ENE) 21:37:14 145.860
STRAND 1 19 Oct 21:37:26 21:42:20 45° 288° (WNW) 21:47:11 437.568
HO-68 19 Oct 21:38:45 21:42:55 16° 268° (W) 21:47:07 435.675
Oscar 11 19 Oct 21:39:37 21:43:55 66° 259° (WSW) 21:48:15 .
FO-29 19 Oct 21:57:34 22:04:23 50° 100° (E) 22:11:47 435.910
BEESAT 3 19 Oct 21:59:17 22:03:00 38° 56° (ENE) 22:06:38 437.485
DELFI C3 19 Oct 22:02:09 22:05:48 40° 74° (ENE) 22:09:28 145.870
AAUSAT CUBESAT 2 19 Oct 22:04:40 22:06:04 11° 268° (W) 22:07:28 437.432
AO-73 19 Oct 22:17:16 22:20:22 18° 266° (W) 22:23:30 145.935
UNISAT 6 19 Oct 22:19:22 22:21:54 15° 92° (E) 22:24:23 437.425
TIGRISAT 19 Oct 22:33:44 22:37:03 20° 94° (E) 22:40:18 435.000
AO-85 19 Oct 22:35:34 22:39:22 25° 53° (NE) 22:43:23 145.980
EO-88 19 Oct 22:57:26 23:01:03 71° 259° (WSW) 23:04:42 145.990 - 145.960
O/OREOS (USA 219) 19 Oct 23:05:11 23:07:15 13° 303° (WNW) 23:09:20 437.305
Max Valier Satellite 19 Oct 23:05:44 23:09:13 37° 262° (W) 23:12:43 145.860
BEESAT 2 19 Oct 23:17:54 23:21:57 89° 46° (NE) 23:25:55 435.950
RS-15 19 Oct 23:25:10 23:30:52 15° 96° (E) 23:36:35 29.354- 29.394
YUBILEINY 19 Oct 23:25:15 23:31:56 25° 277° (W) 23:38:40 435.215
ESTCUBE 1 19 Oct 23:34:51 23:38:36 27° 70° (ENE) 23:42:21 437.505/2401.250
PRISM 19 Oct 23:36:47 23:40:44 44° 99° (E) 23:44:42 437.425
BEESAT 3 19 Oct 23:38:09 23:40:08 14° 252° (WSW) 23:42:08 437.485
DELFI C3 19 Oct 23:39:26 23:40:42 11° 268° (W) 23:41:58 145.870
FO-29 19 Oct 23:43:14 23:49:06 30° 293° (WNW) 23:55:24 435.910
LO-87 19 Oct 23:49:20 23:52:49 54° 76° (ENE) 23:56:22 145.935 - 145.965
UNISAT 6 19 Oct 23:54:26 23:58:48 44° 287° (WNW) 00:03:04 437.425
TIGRISAT 20 Oct 00:09:38 00:13:46 33° 289° (WNW) 00:17:46 435.000
AO-85 20 Oct 00:15:32 00:19:48 35° 246° (WSW) 00:24:22 145.980
SPROUT 20 Oct 00:24:25 00:27:39 21° 69° (ENE) 00:30:53 437.525
EO-79 20 Oct 00:59:15 01:03:09 34° 98° (E) 01:07:00 145.935-145.965
AIST 2D 20 Oct 01:00:00 01:03:25 59° 284° (WNW) 01:06:49 435.315
VELOX 1 20 Oct 01:03:19 01:07:25 41° 73° (ENE) 01:11:32 145.980
POLYITAN 1 20 Oct 01:03:43 01:07:43 39° 98° (E) 01:11:40 437.675
ESTCUBE 1 20 Oct 01:11:41 01:15:18 24° 264° (W) 01:18:57 437.505/2401.250
PRISM 20 Oct 01:13:45 01:15:35 13° 294° (WNW) 01:17:26 437.425
QB50P2 20 Oct 01:23:44 01:28:01 79° 101° (E) 01:32:15 145.880/145.840
NANOSAT C BR1 20 Oct 01:27:38 01:31:53 69° 101° (E) 01:36:04 145.865
RS-15 20 Oct 01:29:02 01:41:12 75° 114° (ESE) 01:53:28 29.354- 29.394
DUCHIFAT 1 20 Oct 01:38:44 01:42:59 82° 103° (ESE) 01:47:11 145.980
BUGSAT 1 20 Oct 01:49:31 01:52:56 24° 96° (E) 01:56:19 437.445
SPROUT 20 Oct 01:59:41 02:03:21 27° 264° (W) 02:07:01 437.525
Gurwin Techsat 1B 20 Oct 02:07:26 02:09:53 13° 92° (E) 02:12:20 435.225
DX 1 20 Oct 02:11:19 02:15:32 58° 74° (ENE) 02:19:48 434.975-435.025
50 SAT 20 Oct 02:13:47 02:17:01 82° 78° (ENE) 02:20:17 437.505
EO-79 20 Oct 02:35:50 02:38:35 17° 292° (WNW) 02:41:20 145.935-145.965
UKube-1 20 Oct 02:36:30 02:40:45 71° 77° (ENE) 02:45:03 .
POLYITAN 1 20 Oct 02:40:40 02:43:08 15° 293° (WNW) 02:45:35 437.675
VELOX 1 20 Oct 02:41:36 02:44:00 14° 267° (W) 02:46:24 145.980
M-CUBED/EXP-1 PRIME 20 Oct 02:48:04 02:51:21 31° 104° (ESE) 02:54:50 437.505
MOZHAYETS 4 20 Oct 03:07:12 03:10:31 20° 68° (ENE) 03:13:50
Oscar 19 20 Oct 03:17:42 03:22:49 78° 284° (WNW) 03:27:55 437.125/150
AO-7 20 Oct 03:20:01 03:22:14 11° 90° (E) 03:24:27 .
BUGSAT 1 20 Oct 03:24:48 03:28:10 23° 290° (WNW) 03:31:29 437.445
ITUPSAT 1 20 Oct 03:30:26 03:34:41 32° 70° (ENE) 03:38:57 437.325
NO-84 20 Oct 03:33:50 03:38:01 52° 129° (SE) 03:42:11 435.350 FM
RS-15 20 Oct 03:43:58 03:54:49 35° 317° (NW) 04:05:41 29.354- 29.394
Gurwin Techsat 1B 20 Oct 03:44:56 03:50:12 64° 286° (WNW) 03:55:26 435.225
BEESAT 20 Oct 03:45:55 03:50:29 48° 73° (ENE) 03:55:06 436.000
ITAMSAT 1 20 Oct 03:52:38 03:53:44 11° 91° (E) 03:54:50 435.822/435.867
M-CUBED/EXP-1 PRIME 20 Oct 04:23:30 04:25:33 15° 295° (WNW) 04:27:41 437.505
KKS-1 20 Oct 04:40:11 04:41:18 11° 64° (ENE) 04:42:26 437.445
MOZHAYETS 4 20 Oct 04:43:08 04:47:22 35° 262° (W) 04:51:38
CUBESAT XI-V 20 Oct 04:52:41 04:57:13 57° 75° (ENE) 05:01:45 437.345
AO-7 20 Oct 05:07:45 05:16:05 76° 106° (ESE) 05:24:23 .
ITUPSAT 1 20 Oct 05:08:45 05:12:29 23° 264° (W) 05:16:15 437.325
NO-84 20 Oct 05:12:16 05:15:39 22° 324° (NW) 05:19:00 435.350 FM
BEESAT 20 Oct 05:25:48 05:28:28 15° 267° (W) 05:31:08 436.000
ITAMSAT 1 20 Oct 05:28:25 05:33:40 75° 285° (WNW) 05:38:52 435.822/435.867
RS-15 20 Oct 06:06:48 06:12:52 14° 351° (N) 06:18:51 29.354- 29.394
KKS-1 20 Oct 06:12:54 06:17:17 62° 259° (W) 06:21:41 437.445
